Погода в Таскине

Россия / Амурская область     51°45′50″N   129°05′05″E
темп.,
°C
ветер,
м/с
пор.,
м/с
влажн.,
%
обл.,
%
осадки,
мм/ч
давл.,
гПа
погр.,
м
14 июня, пн
пн1400:00+16юв22657 0.0 100813
03:00+15ююв2266100 0.0 100818
06:00+17ююв1564100 0.0 1008139
09:00+24ююв2442100 0.0 1007634
12:00+28ю453236 0.0 10051695
15:00+29ю4535100 0.0 10032200
18:00+27ююз4652100 0.0 10031491
21:00+20ююв2279100 0.0 100324
15 июня, вт
вт1500:00+22ю5135966 0.0 1003602
03:00+19ююв41372100 0.1 1003546
06:00+18ююв41483100 0.4 1003563
09:00+23ю61154100 0.4 1003910
12:00+21ю41057100 0.1 1002956
15:00+23ююз5963100 0.3 10021422
18:00+19ю41169100 0.2 1002972
21:00+16ююз41494100 1.4 1002852
16 июня, ср
ср1600:00+16ююз41394100 0.1 1002755
03:00+16ю3898100 0.4 1002354
06:00+16юз2696100 0.0 1003387
09:00+18ююз358795 0.1 1003559
12:00+21ююз347199 0.3 10031013
15:00+23з2365100 1.3 10031128
18:00+23с1264100 0.5 1003870
21:00+18юв229192 0.5 100320
17 июня, чт
чт1700:00+16юв2498100 0.0 100288
03:00+16в2596100 0.0 1001146
06:00+17в3992100 0.1 999331
09:00+20вюв41189100 0.6 997621
12:00+20ююв51289100 3.6 996800
15:00+19ююв51393100 8.5 995743
18:00+18ююв31097100 3.4 995568
21:00+17ююв31198100 10.1 995762
18 июня, пт
пт1800:00+17юв61398100 7.7 995840
03:00+16ююв3897100 10.3 996424
06:00+15ююв3998100 1.9 997413
09:00+17вюв2691100 2.1 997610
12:00+22юв4863100 0.4 9971546
15:00+25ююв51345100 1.4 9962311
18:00+22ю41258100 0.0 9971431
21:00+17ююв31174100 0.0 999637